Overview Statistics Trail Chart Weather Telemetry Raw packets
 

This is the latest recevied weather packets stored in our database for station/object SQ5JP-4. If no packets are shown the sender has not sent any weather packets the latest 10 day(s).

<< 32 33 34 35 36 37 >>
Time Temp. Humidity Pressure Rain* Wind** Luminosity Snow
1787793519 8.89° C 100% 1003.8 hPa - - - -
1787792621 8.89° C 100% 1003.8 hPa - - - -
1787791721 8.89° C 100% 1003.9 hPa - - - -
1787790821 9.44° C 100% 1003.9 hPa - - - -
1787789921 9.44° C 100% 1003.9 hPa - - - -
1787789021 8.89° C 100% 1004 hPa - - - -
1787788121 9.44° C 100% 1003.9 hPa - - - -
1787787221 9.44° C 100% 1003.9 hPa - - - -
1787786321 9.44° C 100% 1003.9 hPa - - - -
1787785421 9.44° C 100% 1004 hPa - - - -
1787784520 9.44° C 100% 1004 hPa - - - -
1787783620 10° C 100% 1004.2 hPa - - - -
1787782720 10° C 100% 1004 hPa - - - -
1787781819 10° C 100% 1004 hPa - - - -
1787780919 10.56° C 100% 1004 hPa - - - -
1787780019 10.56° C 100% 1004 hPa - - - -
1787779119 10.56° C 100% 1004.1 hPa - - - -
1787778219 11.11° C 100% 1004.5 hPa - - - -
1787777319 11.11° C 100% 1004.4 hPa - - - -
1787776419 11.11° C 100% 1004.5 hPa - - - -
1787775519 11.67° C 100% 1004.5 hPa - - - -
1787774619 11.67° C 100% 1004.7 hPa - - - -
1787773719 12.22° C 100% 1004.4 hPa - - - -
1787772818 12.22° C 100% 1004.2 hPa - - - -
1787771020 12.78° C 100% 1004.3 hPa - - - -

* Rain since midnight (hover to see other rain measurements)
** Current wind speed in m/s (hover to see current wind gust speed)